When you browse on this site, cookies collect data to enhance your experience and personalize the content and advertising you see.
Visit our Privacy Policy to learn more. By continuing to use the site, you agree to this use of cookies and data.
  • In Lithuania
  • List of Countries
  • For 7 days
  • Water Temperature
  • Weather Map
  • Weather Widgets
  • user-avatar
    Login

    Hourly Weather Ulaangom

    Today, 16 November, Saturday

    Time Temperature Precipitation Wind Pressure Humidity
    00:00 -25°C° 0 mm 9 mps 618 mmHg 79%
    01:00 -26°C° 0.1 mm 10 mps 618 mmHg 77%
    02:00 -28°C° 0.1 mm 10 mps 619 mmHg 75%
    03:00 -29°C° 0.1 mm 10 mps 619 mmHg 73%
    04:00 -30°C° 0 mm 10 mps 620 mmHg 71%
    05:00 -30°C° 0 mm 10 mps 622 mmHg 70%
    06:00 -31°C° 0 mm 10 mps 623 mmHg 68%
    07:00 -31°C° 0 mm 9 mps 624 mmHg 67%
    08:00 -31°C° 0 mm 9 mps 625 mmHg 67%
    09:00 -30°C° 0 mm 8 mps 627 mmHg 66%
    10:00 -29°C° 0 mm 7 mps 627 mmHg 65%
    11:00 -29°C° 0 mm 7 mps 628 mmHg 65%
    12:00 -27°C° 0 mm 6 mps 629 mmHg 63%
    13:00 -27°C° 0 mm 6 mps 629 mmHg 65%
    14:00 -27°C° 0 mm 5 mps 629 mmHg 66%
    15:00 -27°C° 0 mm 5 mps 629 mmHg 67%
    16:00 -26°C° 0 mm 4 mps 630 mmHg 66%
    17:00 -26°C° 0 mm 3 mps 630 mmHg 64%
    18:00 -25°C° 0 mm 2 mps 631 mmHg 62%
    19:00 -25°C° 0 mm 2 mps 631 mmHg 60%
    20:00 -22°C° 0 mm 1 mps 632 mmHg 59%
    21:00 -22°C° 0 mm 1 mps 632 mmHg 57%
    22:00 -22°C° 0 mm 1 mps 632 mmHg 57%
    23:00 -22°C° 0 mm 1 mps 632 mmHg 56%

    Tomorrow, 17 November, Sunday

    Time Temperature Precipitation Wind Pressure Humidity
    00:00 -22°C° 0 mm 1 mps 632 mmHg 56%
    01:00 -25°C° 0 mm 2 mps 632 mmHg 57%
    02:00 -25°C° 0 mm 2 mps 631 mmHg 59%
    03:00 -25°C° 0 mm 2 mps 631 mmHg 60%
    04:00 -25°C° 0 mm 3 mps 631 mmHg 63%
    05:00 -26°C° 0 mm 4 mps 631 mmHg 66%
    06:00 -26°C° 0 mm 5 mps 631 mmHg 69%
    07:00 -26°C° 0 mm 5 mps 631 mmHg 71%
    08:00 -24°C° 0 mm 4 mps 630 mmHg 74%
    09:00 -24°C° 0 mm 4 mps 630 mmHg 77%
    10:00 -23°C° 0 mm 4 mps 630 mmHg 76%
    11:00 -22°C° 0 mm 4 mps 630 mmHg 76%
    12:00 -22°C° 0 mm 4 mps 630 mmHg 76%
    13:00 -21°C° 0 mm 3 mps 630 mmHg 76%
    14:00 -21°C° 0 mm 3 mps 629 mmHg 77%
    15:00 -19°C° 0 mm 2 mps 629 mmHg 78%
    16:00 -19°C° 0 mm 2 mps 629 mmHg 76%
    17:00 -20°C° 0 mm 2 mps 629 mmHg 74%
    18:00 -20°C° 0 mm 2 mps 629 mmHg 73%
    19:00 -20°C° 0 mm 2 mps 629 mmHg 72%
    20:00 -19°C° 0 mm 2 mps 629 mmHg 71%
    21:00 -21°C° 0 mm 3 mps 629 mmHg 70%
    22:00 -21°C° 0 mm 3 mps 628 mmHg 71%
    23:00 -21°C° 0 mm 3 mps 628 mmHg 73%

    Day after tomorrow, 18 November, Monday

    Time Temperature Precipitation Wind Pressure Humidity
    00:00 -19°C° 0 mm 3 mps 628 mmHg 74%
    01:00 -19°C° 0 mm 3 mps 628 mmHg 74%
    02:00 -19°C° 0 mm 3 mps 627 mmHg 74%
    03:00 -19°C° 0 mm 3 mps 627 mmHg 74%
    04:00 -19°C° 0 mm 3 mps 627 mmHg 74%
    05:00 -19°C° 0 mm 3 mps 626 mmHg 75%
    06:00 -19°C° 0 mm 3 mps 626 mmHg 76%
    07:00 -18°C° 0 mm 3 mps 626 mmHg 76%
    08:00 -18°C° 0 mm 3 mps 626 mmHg 76%
    09:00 -17°C° 0 mm 3 mps 626 mmHg 77%
    10:00 -17°C° 0 mm 4 mps 625 mmHg 76%
    11:00 -17°C° 0 mm 4 mps 625 mmHg 74%
    12:00 -16°C° 0 mm 4 mps 625 mmHg 73%
    13:00 -16°C° 0 mm 4 mps 624 mmHg 73%
    14:00 -16°C° 0 mm 4 mps 624 mmHg 74%
    15:00 -15°C° 0 mm 3 mps 623 mmHg 74%
    16:00 -16°C° 0 mm 3 mps 623 mmHg 74%
    17:00 -16°C° 0 mm 3 mps 623 mmHg 74%
    18:00 -16°C° 0 mm 3 mps 622 mmHg 75%
    19:00 -15°C° 0 mm 2 mps 622 mmHg 74%
    20:00 -15°C° 0 mm 2 mps 622 mmHg 74%
    21:00 -15°C° 0 mm 2 mps 622 mmHg 74%
    22:00 -15°C° 0 mm 2 mps 622 mmHg 75%
    23:00 -13°C° 0 mm 1 mps 622 mmHg 75%

    19 November, Tuesday

    Time Temperature Precipitation Wind Pressure Humidity
    00:00 -14°C° 0 mm 1 mps 621 mmHg 76%
    01:00 -14°C° 0 mm 1 mps 622 mmHg 75%
    02:00 -13°C° 0 mm 1 mps 622 mmHg 75%
    03:00 -13°C° 0 mm 1 mps 622 mmHg 74%
    04:00 -13°C° 0 mm 1 mps 622 mmHg 74%
    05:00 -13°C° 0 mm 1 mps 622 mmHg 74%
    06:00 -13°C° 0 mm 1 mps 622 mmHg 74%
    07:00 -13°C° 0 mm 1 mps 623 mmHg 74%
    08:00 -12°C° 0 mm 1 mps 623 mmHg 74%
    09:00 -12°C° 0 mm 1 mps 623 mmHg 74%
    10:00 -11°C° 0 mm 1 mps 623 mmHg 73%
    11:00 -10°C° 0 mm 1 mps 624 mmHg 72%
    12:00 -9°C° 0 mm 1 mps 624 mmHg 72%
    13:00 -10°C° 0 mm 1 mps 623 mmHg 74%
    14:00 -10°C° 0 mm 1 mps 623 mmHg 76%
    15:00 -10°C° 0 mm 1 mps 623 mmHg 79%
    16:00 -11°C° 0 mm 1 mps 623 mmHg 78%
    17:00 -11°C° 0 mm 1 mps 623 mmHg 77%
    18:00 -13°C° 0 mm 2 mps 623 mmHg 75%
    19:00 -13°C° 0 mm 2 mps 623 mmHg 75%
    20:00 -13°C° 0 mm 2 mps 623 mmHg 74%
    21:00 -13°C° 0 mm 2 mps 623 mmHg 74%
    22:00 -13°C° 0 mm 2 mps 622 mmHg 74%
    23:00 -13°C° 0 mm 2 mps 622 mmHg 75%

    20 November, Wednesday

    Time Temperature Precipitation Wind Pressure Humidity
    00:00 -13°C° 0 mm 2 mps 622 mmHg 75%
    01:00 -13°C° 0 mm 2 mps 622 mmHg 76%
    02:00 -13°C° 0 mm 2 mps 622 mmHg 76%
    03:00 -13°C° 0 mm 2 mps 622 mmHg 76%
    04:00 -13°C° 0 mm 2 mps 622 mmHg 76%
    05:00 -12°C° 0 mm 2 mps 622 mmHg 76%
    06:00 -12°C° 0 mm 2 mps 622 mmHg 76%
    07:00 -12°C° 0 mm 2 mps 622 mmHg 76%
    08:00 -10°C° 0 mm 2 mps 622 mmHg 76%
    09:00 -10°C° 0 mm 2 mps 623 mmHg 76%
    10:00 -9°C° 0 mm 2 mps 623 mmHg 75%
    11:00 -8°C° 0 mm 2 mps 623 mmHg 75%
    12:00 -7°C° 0 mm 2 mps 623 mmHg 75%
    13:00 -8°C° 0 mm 2 mps 623 mmHg 76%
    14:00 -8°C° 0 mm 1 mps 622 mmHg 77%
    15:00 -8°C° 0 mm 1 mps 622 mmHg 78%
    16:00 -8°C° 0 mm 1 mps 622 mmHg 77%
    17:00 -9°C° 0 mm 1 mps 622 mmHg 75%
    18:00 -9°C° 0 mm 1 mps 622 mmHg 73%
    19:00 -9°C° 0 mm 1 mps 622 mmHg 73%
    20:00 -9°C° 0 mm 1 mps 622 mmHg 72%
    21:00 -9°C° 0 mm 1 mps 622 mmHg 72%
    22:00 -9°C° 0 mm 1 mps 622 mmHg 73%
    23:00 -9°C° 0 mm 1 mps 621 mmHg 73%

    21 November, Thursday

    Time Temperature Precipitation Wind Pressure Humidity
    00:00 -9°C° 0 mm 1 mps 621 mmHg 74%
    01:00 -9°C° 0 mm 1 mps 621 mmHg 75%
    02:00 -9°C° 0 mm 1 mps 621 mmHg 75%
    03:00 -9°C° 0 mm 1 mps 621 mmHg 75%
    04:00 -9°C° 0 mm 1 mps 621 mmHg 75%
    05:00 -9°C° 0 mm 1 mps 621 mmHg 75%
    06:00 -9°C° 0 mm 1 mps 620 mmHg 75%
    07:00 -8°C° 0 mm 1 mps 621 mmHg 75%
    08:00 -8°C° 0 mm 1 mps 621 mmHg 75%
    09:00 -7°C° 0 mm 1 mps 621 mmHg 75%
    10:00 -6°C° 0 mm 1 mps 621 mmHg 75%
    11:00 -6°C° 0 mm 1 mps 621 mmHg 75%
    12:00 -4°C° 0 mm 1 mps 621 mmHg 75%
    13:00 -6°C° 0 mm 1 mps 620 mmHg 76%
    14:00 -6°C° 0 mm 1 mps 620 mmHg 77%
    15:00 -7°C° 0 mm 1 mps 619 mmHg 78%
    16:00 -7°C° 0 mm 1 mps 619 mmHg 75%
    17:00 -8°C° 0 mm 1 mps 619 mmHg 73%
    18:00 -8°C° 0 mm 1 mps 618 mmHg 71%
    19:00 -8°C° 0 mm 1 mps 618 mmHg 71%
    20:00 -8°C° 0 mm 1 mps 618 mmHg 72%
    21:00 -8°C° 0 mm 0 mps 618 mmHg 72%
    22:00 -8°C° 0 mm 0 mps 618 mmHg 72%
    23:00 -8°C° 0 mm 1 mps 617 mmHg 72%
    Show more